Main page
METAR-TAF:

METAR-TAF

Airports :

Moundou Airport

Moundou, Chad

latitude: 08-37N, longitude: 016-04E, elevation: 428 m

Current weather observation

The report was made 42 minutes ago, at 11:00 UTC
Wind 8 kt from the East
Temperature 35°C
Humidity 20%
Pressure 1011 hPa
Visibility 10 km or more
no clouds below 1500 m and no cumulonimbus

METAR: FTTD 061100Z 10008KT CAVOK 35/09 Q1011

Time: 12:42 (11:42 UTC)


TAF: missing

Weather observations and forecasts of more than 4000 airports (METAR and TAF reports).

The available stations are represented by yellow and red dots on the map.

Hover mouse over dot to see the name of the station.

Then click to see weather observations and forecasts.

To change the map : click on the green buttons with a black cross to zoom in, on the green button with a dash to zoom out, or on the green arrows for adjacent maps.


METAR-TAF: